TimeCDT,TemperatureF,Dew PointF,Humidity,Sea Level PressureIn,VisibilityMPH,Wind Direction,Wind SpeedMPH,Gust SpeedMPH,PrecipitationIn,Events,Conditions,WindDirDegrees,DateUTC
12:10 AM,66.2,66.2,100,30.01,10.0,South,12.7,-,N/A,,Clear,190,2013-08-19 05:10:00
12:30 AM,66.2,66.2,100,30.01,10.0,South,11.5,-,N/A,,Clear,190,2013-08-19 05:30:00
12:50 AM,66.2,66.2,100,30.02,10.0,South,9.2,-,N/A,,Clear,190,2013-08-19 05:50:00
1:10 AM,66.2,66.2,100,30.02,10.0,SSW,8.1,-,N/A,,Clear,200,2013-08-19 06:10:00
1:30 AM,64.4,64.4,100,30.02,10.0,South,6.9,-,N/A,,Clear,180,2013-08-19 06:30:00
1:50 AM,64.4,64.4,100,30.02,10.0,South,6.9,-,N/A,,Clear,190,2013-08-19 06:50:00
2:10 AM,64.4,64.4,100,30.02,10.0,South,9.2,-,N/A,,Clear,190,2013-08-19 07:10:00
2:30 AM,64.4,64.4,100,30.01,10.0,South,5.8,-,N/A,,Clear,180,2013-08-19 07:30:00
2:50 AM,64.4,64.4,100,29.99,10.0,South,9.2,-,N/A,,Clear,180,2013-08-19 07:50:00
3:10 AM,64.4,64.4,100,29.99,10.0,South,8.1,-,N/A,,Clear,170,2013-08-19 08:10:00
3:30 AM,62.6,62.6,100,30.00,10.0,South,5.8,-,N/A,,Clear,180,2013-08-19 08:30:00
3:50 AM,62.6,62.6,100,29.99,10.0,South,5.8,-,N/A,,Clear,180,2013-08-19 08:50:00
4:10 AM,62.6,62.6,100,29.99,10.0,South,6.9,-,N/A,,Clear,180,2013-08-19 09:10:00
4:30 AM,62.6,62.6,100,29.98,10.0,South,8.1,-,N/A,,Clear,180,2013-08-19 09:30:00
4:50 AM,62.6,62.6,100,29.98,10.0,South,8.1,-,N/A,,Clear,170,2013-08-19 09:50:00
5:10 AM,62.6,62.6,100,29.97,10.0,South,9.2,-,N/A,,Clear,170,2013-08-19 10:10:00
5:30 AM,62.6,62.6,100,29.97,10.0,South,8.1,-,N/A,,Clear,170,2013-08-19 10:30:00
5:50 AM,62.6,62.6,100,29.97,10.0,SSE,10.4,-,N/A,,Clear,160,2013-08-19 10:50:00
6:10 AM,62.6,62.6,100,29.96,10.0,South,10.4,-,N/A,,Clear,180,2013-08-19 11:10:00
6:30 AM,62.6,62.6,100,29.96,10.0,South,9.2,-,N/A,,Clear,170,2013-08-19 11:30:00
6:50 AM,62.6,62.6,100,29.95,10.0,South,10.4,-,N/A,,Clear,170,2013-08-19 11:50:00
7:10 AM,62.6,62.6,100,29.95,10.0,South,10.4,-,N/A,,Clear,170,2013-08-19 12:10:00
7:30 AM,62.6,62.6,100,29.95,10.0,South,9.2,-,N/A,,Clear,180,2013-08-19 12:30:00
7:50 AM,64.4,64.4,100,29.95,10.0,South,6.9,-,N/A,,Clear,180,2013-08-19 12:50:00
8:10 AM,66.2,66.2,100,29.95,10.0,SSW,8.1,-,N/A,,Clear,200,2013-08-19 13:10:00
8:30 AM,68.0,68.0,100,29.95,10.0,South,10.4,16.1,N/A,,Clear,190,2013-08-19 13:30:00
8:50 AM,69.8,68.0,94,29.95,10.0,SSW,15.0,20.7,N/A,,Clear,210,2013-08-19 13:50:00
9:10 AM,71.6,68.0,88,29.94,10.0,SSW,13.8,17.3,N/A,,Clear,200,2013-08-19 14:10:00
9:30 AM,71.6,68.0,88,29.94,10.0,SSW,10.4,18.4,N/A,,Clear,210,2013-08-19 14:30:00
9:50 AM,71.6,68.0,88,29.95,10.0,SSW,12.7,-,N/A,,Clear,210,2013-08-19 14:50:00
10:10 AM,73.4,69.8,88,29.95,10.0,SSW,10.4,-,N/A,,Clear,200,2013-08-19 15:10:00
10:30 AM,73.4,69.8,88,29.95,10.0,SSW,10.4,-,N/A,,Clear,210,2013-08-19 15:30:00
10:50 AM,75.2,71.6,89,29.95,10.0,South,8.1,-,N/A,,Scattered Clouds,190,2013-08-19 15:50:00
11:10 AM,75.2,71.6,89,29.95,10.0,SW,8.1,-,N/A,,Mostly Cloudy,220,2013-08-19 16:10:00
11:30 AM,75.2,71.6,89,29.95,10.0,SSW,10.4,-,N/A,,Mostly Cloudy,210,2013-08-19 16:30:00
11:50 AM,75.2,71.6,89,29.95,10.0,South,8.1,-,N/A,,Mostly Cloudy,180,2013-08-19 16:50:00
12:10 PM,75.2,71.6,89,29.95,10.0,SSW,8.1,-,N/A,,Overcast,210,2013-08-19 17:10:00
12:30 PM,77.0,71.6,83,29.95,10.0,South,9.2,-,N/A,,Mostly Cloudy,190,2013-08-19 17:30:00
12:50 PM,77.0,71.6,83,29.94,10.0,South,9.2,-,N/A,,Mostly Cloudy,190,2013-08-19 17:50:00
1:10 PM,80.6,71.6,74,29.94,10.0,SSW,9.2,-,N/A,,Scattered Clouds,210,2013-08-19 18:10:00
1:30 PM,78.8,71.6,78,29.93,10.0,South,5.8,-,N/A,,Mostly Cloudy,180,2013-08-19 18:30:00
1:50 PM,80.6,73.4,79,29.93,10.0,South,10.4,-,N/A,,Scattered Clouds,190,2013-08-19 18:50:00
2:10 PM,80.6,73.4,79,29.93,10.0,SSW,9.2,17.3,N/A,,Partly Cloudy,200,2013-08-19 19:10:00
2:30 PM,82.4,73.4,74,29.92,10.0,South,11.5,16.1,N/A,,Partly Cloudy,180,2013-08-19 19:30:00
2:50 PM,80.6,73.4,79,29.91,10.0,South,13.8,17.3,N/A,,Scattered Clouds,170,2013-08-19 19:50:00
3:10 PM,82.4,73.4,74,29.91,10.0,South,15.0,20.7,N/A,,Partly Cloudy,180,2013-08-19 20:10:00
3:30 PM,80.6,73.4,79,29.90,10.0,South,13.8,20.7,N/A,,Partly Cloudy,170,2013-08-19 20:30:00
3:50 PM,82.4,73.4,74,29.90,10.0,South,12.7,19.6,N/A,,Partly Cloudy,190,2013-08-19 20:50:00
4:10 PM,82.4,73.4,74,29.90,10.0,SSW,15.0,-,N/A,,Partly Cloudy,200,2013-08-19 21:10:00
4:30 PM,82.4,73.4,74,29.90,10.0,South,12.7,19.6,N/A,,Scattered Clouds,190,2013-08-19 21:30:00
4:50 PM,82.4,73.4,74,29.90,10.0,SSW,12.7,19.6,N/A,,Partly Cloudy,200,2013-08-19 21:50:00
5:10 PM,82.4,73.4,74,29.90,10.0,SSW,10.4,-,N/A,,Scattered Clouds,210,2013-08-19 22:10:00
5:30 PM,82.4,73.4,74,29.90,10.0,SSW,10.4,-,N/A,,Mostly Cloudy,210,2013-08-19 22:30:00
5:50 PM,80.6,73.4,79,29.89,10.0,SSW,9.2,-,N/A,,Mostly Cloudy,210,2013-08-19 22:50:00
6:10 PM,80.6,73.4,79,29.89,10.0,SW,6.9,-,N/A,,Mostly Cloudy,220,2013-08-19 23:10:00
6:30 PM,80.6,73.4,79,29.89,10.0,SSW,5.8,-,N/A,,Overcast,210,2013-08-19 23:30:00
6:50 PM,80.6,75.2,84,29.89,10.0,SSW,5.8,-,N/A,,Overcast,200,2013-08-19 23:50:00
7:10 PM,78.8,75.2,89,29.89,10.0,SSE,4.6,-,N/A,,Overcast,160,2013-08-20 00:10:00
7:30 PM,78.8,75.2,89,29.89,10.0,SSE,6.9,-,N/A,,Overcast,160,2013-08-20 00:30:00
7:50 PM,77.0,75.2,94,29.89,10.0,SSE,5.8,-,N/A,,Overcast,160,2013-08-20 00:50:00
8:10 PM,75.2,75.2,100,29.89,10.0,SSE,6.9,-,N/A,,Scattered Clouds,150,2013-08-20 01:10:00
8:30 PM,75.2,75.2,100,29.89,10.0,SSE,5.8,-,N/A,,Clear,160,2013-08-20 01:30:00
8:50 PM,73.4,73.4,100,29.90,10.0,SSE,6.9,-,N/A,,Clear,160,2013-08-20 01:50:00
9:10 PM,73.4,73.4,100,29.90,10.0,SSE,6.9,-,N/A,,Clear,160,2013-08-20 02:10:00
9:30 PM,73.4,73.4,100,29.90,10.0,SSE,6.9,-,N/A,,Clear,160,2013-08-20 02:30:00
9:50 PM,73.4,73.4,100,29.90,10.0,SSE,8.1,-,N/A,Rain,Light Rain,160,2013-08-20 02:50:00
10:10 PM,73.4,73.4,100,29.91,10.0,South,4.6,-,N/A,,Clear,170,2013-08-20 03:10:00
10:30 PM,71.6,71.6,100,29.91,10.0,SSE,6.9,-,N/A,,Scattered Clouds,160,2013-08-20 03:30:00
10:50 PM,71.6,71.6,100,29.91,10.0,South,6.9,-,N/A,,Scattered Clouds,170,2013-08-20 03:50:00
11:10 PM,71.6,71.6,100,29.91,10.0,South,6.9,-,N/A,,Scattered Clouds,180,2013-08-20 04:10:00
11:30 PM,71.6,71.6,100,29.90,10.0,South,6.9,-,N/A,,Scattered Clouds,180,2013-08-20 04:30:00
11:50 PM,71.6,71.6,100,29.90,10.0,South,6.9,-,N/A,,Partly Cloudy,190,2013-08-20 04:50:00